Temperature
21 21 21 21 18 16 18 19 19 19 19 19 19 18 17 17 17 17 17 17 17 17 17 17 17 17 17 17 17 17 17 17 17 17 17 17 17 17 17 17 17 17 17 17 17 17 17 17 17
21 21 21 21 16 17 18 19 19 19 19 19 19 18 17 17 17 17 17 17 17 17 17 17 17 17 17 17 17 17 17 17 17 17 17 17 17 17 17 17 17 17 17 17 17 17 17 17 17
21 21 21 16 17 17 19 19 18 19 19 19 18 18 17 17 17 17 17 17 17 17 17 17 17 17 17 17 17 17 17 17 17 17 17 17 17 17 17 17 17 17 17 17 17 17 17 17 17
21 21 20 17 18 18 19 19 19 19 19 19 18 17 17 17 18 17 17 17 17 17 17 17 17 17 17 17 17 17 17 17 17 17 17 17 17 17 17 17 17 17 17 17 17 17 17 17 17
22 21 17 17 18 18 18 19 19 19 19 18 18 17 17 17 17 17 17 17 17 17 17 17 17 17 17 17 17 17 17 17 17 17 17 17 17 17 17 17 17 17 17 17 17 17 17 17 17
21 18 16 17 18 19 19 19 19 18 18 18 18 17 17 17 17 17 17 17 17 17 17 17 17 17 17 17 17 17 17 17 17 17 17 17 17 17 17 16 16 16 16 16 16 16 16 16 16
20 16 17 18 18 19 19 20 19 18 18 18 18 17 17 17 17 17 17 17 17 17 17 17 17 17 17 17 17 17 17 17 17 17 16 16 16 16 16 16 16 16 16 16 16 16 16 16 16
21 16 17 17 18 19 20 20 19 19 19 19 19 17 17 17 17 17 17 17 17 17 17 17 17 17 17 17 17 17 16 17 17 16 16 16 16 16 16 16 16 16 16 16 16 16 16 16 16
21 16 17 18 18 19 19 19 19 19 19 18 18 18 18 18 17 17 17 17 17 17 17 17 17 17 17 17 17 16 16 16 16 16 16 16 16 16 16 16 16 16 16 16 16 16 16 16 16
20 17 18 19 18 19 19 19 19 19 18 18 18 18 18 18 17 17 17 17 17 17 17 17 17 17 17 17 16 16 16 16 16 16 16 16 16 16 16 16 16 16 16 16 16 16 16 16 16
19 18 19 19 20 19 19 19 19 18 17 18 18 18 18 17 17 17 17 17 17 17 17 17 17 17 17 17 16 16 16 16 16 16 16 16 16 16 16 16 16 16 16 16 16 16 16 16 16
19 19 19 19 20 19 19 19 18 18 18 19 19 19 18 17 17 17 17 17 17 17 17 17 17 17 17 16 16 16 16 16 16 16 16 16 16 16 16 16 16 16 16 16 16 16 16 15 15
19 19 19 20 20 19 19 18 18 18 18 19 18 18 18 18 17 17 17 17 17 17 17 17 17 17 17 16 16 16 16 16 16 16 16 16 16 16 16 16 16 16 16 16 16 15 15 15 15
19 19 19 19 19 19 18 18 18 17 18 18 18 17 17 17 17 17 17 17 17 17 17 17 17 17 16 16 16 16 16 16 16 16 16 16 15 15 15 15 15 15 15 15 15 15 15 15 15
19 18 18 18 19 18 18 17 17 17 17 17 17 17 17 17 17 17 17 17 17 17 17 17 17 16 16 16 16 16 16 16 15 15 15 15 15 15 15 15 15 15 15 15 15 15 15 15 15
18 17 17 18 18 18 18 16 17 17 17 16 16 16 16 16 17 17 17 17 17 17 17 17 16 16 16 16 16 16 15 15 15 15 15 15 15 15 15 15 15 15 14 14 14 14 14 14 14
17 16 17 17 17 17 17 16 16 17 16 16 16 16 16 16 16 17 17 17 17 17 16 16 16 16 16 16 16 16 15 15 15 15 15 15 15 15 14 14 14 14 14 14 14 14 14 14 14
17 17 17 17 17 17 16 16 16 16 16 15 16 16 16 16 16 17 17 16 16 16 16 16 16 16 16 16 16 16 15 15 15 15 15 15 15 14 14 14 14 14 14 14 14 14 13 13 14
17 17 16 17 17 16 16 15 15 15 15 15 15 15 16 16 16 16 16 16 16 16 16 16 16 16 16 16 16 16 15 15 15 15 15 14 14 14 14 14 14 14 14 13 13 13 13 13 13
17 17 16 17 17 16 15 15 15 15 14 15 15 15 16 16 16 16 16 16 16 16 16 16 16 16 16 16 16 15 15 15 15 15 14 14 14 14 14 14 14 13 13 13 13 13 13 13 12
17 16 17 16 16 16 16 15 15 15 15 15 15 16 16 16 16 16 16 16 16 16 16 16 16 16 16 15 15 15 15 15 15 14 14 14 14 14 14 14 13 13 13 13 13 13 12 12 12
17 17 17 17 16 15 16 14 14 14 14 14 14 15 15 16 16 16 16 16 16 16 16 16 16 15 15 15 15 15 15 15 14 14 14 14 14 14 14 13 13 13 13 13 13 12 12 12 12
17 17 17 16 15 14 14 14 14 14 14 13 14 15 15 16 16 16 16 16 16 16 16 16 15 15 15 15 15 15 14 14 14 14 14 14 14 14 13 13 13 13 13 12 12 12 12 12 12
17 16 15 14 14 14 14 14 14 13 14 14 14 14 15 15 16 16 16 16 16 16 16 15 15 15 15 15 14 14 14 14 14 14 14 14 14 14 13 13 13 13 13 12 12 12 12 12 12
16 15 14 15 14 14 14 14 13 14 14 14 14 14 15 15 15 15 15 15 16 16 16 15 15 15 15 15 14 14 14 14 14 14 14 14 13 13 13 13 13 13 12 12 12 12 12 12 12
16 15 14 15 14 13 14 13 14 14 14 15 15 15 15 15 15 15 15 15 15 15 15 15 15 15 15 14 14 14 14 13 13 13 13 13 13 13 13 13 13 12 12 12 12 12 12 11 11
15 14 14 13 14 13 13 13 14 14 14 14 14 14 14 14 15 15 15 15 15 15 15 15 15 15 14 14 14 14 14 13 13 13 13 13 13 13 12 12 12 12 12 12 12 11 11 11 11
15 14 12 13 13 13 14 14 13 14 14 13 12 13 14 14 14 14 15 15 15 15 15 14 14 14 14 14 14 14 13 13 13 13 13 13 12 12 12 12 12 12 12 12 11 11 11 11 11
15 14 13 12 12 13 13 13 14 13 13 13 12 13 14 14 14 14 14 14 14 14 14 14 14 14 14 14 13 13 13 13 13 13 12 12 12 12 12 12 11 11 11 11 11 11 11 11 11
15 14 13 13 13 12 12 13 14 13 13 13 13 13 14 14 14 14 14 14 14 14 13 13 13 13 13 13 13 13 13 13 12 12 12 12 12 12 11 11 11 11 11 11 11 11 10 10 10
Wind_Speed
2 3 3 4 6 6 4 3 1 2 3 3 4 6 7 5 3 3 1 2 2 2 2 4 6 8 9 10 10 10 11 11 12 12 13 13 13 13 13 11 11 11 11 11 11 10 10 10 9
1 2 4 5 6 4 3 2 2 1 5 5 5 6 6 5 3 3 1 1 3 3 3 4 6 7 8 9 10 11 11 11 11 12 12 12 12 13 13 13 12 12 12 12 12 11 11 11 11
2 4 5 5 5 4 2 0 2 4 4 3 4 5 4 3 2 2 2 4 4 4 4 4 6 7 8 9 10 10 10 11 11 12 12 12 12 12 12 12 13 12 12 12 12 12 11 11 11
4 5 5 6 5 1 2 2 3 5 4 5 4 5 3 3 2 3 5 5 5 4 4 4 6 7 8 9 9 9 10 11 11 11 11 11 12 12 12 12 12 12 12 12 11 11 11 11 10
4 5 6 5 3 2 1 1 2 4 3 4 4 5 3 4 4 7 6 5 5 3 4 4 6 7 8 9 9 9 10 10 11 11 11 11 11 11 11 11 11 12 11 11 11 10 11 10 10
5 5 5 3 2 2 1 1 3 5 4 4 4 4 2 2 4 5 6 5 4 4 4 4 5 7 8 8 8 9 9 9 10 10 10 10 10 11 11 11 11 11 11 11 10 10 10 10 10
5 5 4 3 2 1 0 1 4 5 4 2 4 5 2 1 2 5 5 5 4 5 5 5 5 6 7 8 8 8 9 9 9 9 9 10 10 11 11 11 11 11 10 10 11 11 10 10 10
5 5 4 2 3 0 1 2 2 4 3 3 4 6 4 4 4 6 6 5 5 4 4 5 5 6 6 7 8 8 9 9 9 9 10 10 11 11 11 11 11 10 11 11 11 11 11 11 10
4 5 2 3 4 1 1 3 2 3 5 3 2 3 4 8 8 7 5 4 4 3 3 4 4 5 5 5 6 8 8 9 9 9 10 10 10 10 10 11 11 11 11 11 12 11 11 11 10
5 4 3 3 4 3 2 3 3 4 4 3 4 5 8 9 8 7 5 3 2 1 1 2 3 3 4 5 6 7 7 8 9 9 9 9 9 9 9 10 11 11 11 11 11 11 11 10 8
4 4 1 1 3 4 4 4 4 6 2 3 5 8 9 8 7 6 4 3 3 2 1 1 2 3 4 4 4 5 6 6 7 7 7 8 8 8 8 8 9 10 10 9 9 10 9 7 7
4 2 2 1 3 4 4 3 4 3 2 2 6 10 9 8 7 5 5 3 2 2 1 1 2 2 3 3 3 4 4 4 4 5 6 6 5 5 6 6 7 7 7 7 7 6 7 7 7
3 1 2 3 5 6 7 5 3 2 3 5 8 9 8 7 5 3 2 3 2 2 1 1 2 2 2 3 3 4 3 3 3 4 5 6 4 4 4 5 6 6 7 6 5 5 6 5 6
2 3 3 4 5 3 6 3 3 1 3 7 8 7 5 5 4 3 2 2 2 2 1 1 2 2 3 2 2 2 3 3 3 4 4 5 4 4 4 4 4 5 6 6 5 4 4 4 4
4 5 5 4 2 1 5 4 0 1 5 6 5 4 4 3 3 3 2 2 2 2 1 1 2 2 3 3 2 2 2 3 3 3 4 4 5 4 4 3 3 4 5 6 5 5 5 4 4
4 4 2 3 1 1 4 2 3 1 6 5 4 3 2 1 1 1 2 2 2 2 2 1 1 2 2 2 2 2 2 3 2 2 3 4 5 5 4 3 2 4 5 4 3 3 4 4 4
4 2 1 3 1 2 4 3 3 2 6 4 3 2 2 1 1 0 1 1 2 2 2 2 1 2 2 2 2 2 3 2 2 3 3 3 4 4 4 3 3 4 4 3 3 3 3 3 3
3 2 2 3 1 4 3 2 2 2 5 4 3 2 2 2 3 2 1 2 2 2 3 2 2 2 2 2 2 2 2 2 3 2 2 2 3 3 4 3 3 3 3 3 3 3 3 2 2
5 4 3 3 2 3 3 3 4 1 3 3 3 3 3 4 3 1 1 2 2 3 3 3 3 2 3 2 2 2 1 1 1 2 2 2 2 3 3 2 2 2 2 1 2 2 3 3 3
4 3 2 1 2 4 2 3 4 2 3 5 6 6 5 3 0 0 1 2 2 2 2 2 2 2 2 2 1 2 1 1 0 2 2 2 2 2 2 2 1 1 1 2 2 2 2 2 3
3 5 5 3 1 2 1 4 3 2 1 1 2 4 4 5 4 3 2 2 2 2 3 3 2 2 2 3 3 3 3 2 2 2 1 2 1 2 2 2 1 1 1 1 1 1 2 1 2
4 4 5 5 3 2 1 3 5 3 2 2 3 4 4 5 4 4 4 3 3 3 3 2 2 2 3 4 4 5 2 1 1 1 1 1 2 1 1 1 1 1 1 1 0 1 1 2 0
4 1 3 3 4 1 1 1 6 2 3 5 5 5 5 5 5 5 5 5 4 3 3 3 3 2 2 3 4 4 2 1 0 0 1 1 2 2 1 1 1 1 1 1 0 0 1 1 1
4 5 5 5 4 1 3 4 5 3 5 4 4 4 3 4 5 5 4 3 2 2 2 2 3 2 2 3 3 3 3 2 1 0 0 1 1 1 2 1 1 0 0 1 1 1 1 1 1
5 5 3 3 2 4 2 3 6 6 5 5 5 4 3 3 4 4 4 3 3 3 3 3 3 2 2 3 3 3 3 3 2 2 2 2 1 1 2 1 1 1 1 1 1 1 1 1 2
4 7 6 4 4 3 1 4 5 4 3 2 2 3 2 3 3 4 5 4 4 4 3 3 4 3 2 3 2 2 2 2 2 2 2 3 3 3 2 1 1 1 1 1 0 1 1 1 2
5 3 5 5 2 1 4 4 6 2 2 1 2 3 3 3 3 3 3 3 3 4 4 5 4 3 3 3 2 1 1 2 2 1 1 2 2 1 1 1 1 1 1 1 1 1 1 1 1
4 7 5 4 3 3 4 4 4 5 4 1 1 3 3 2 2 3 3 3 2 2 3 4 4 4 4 3 2 1 1 2 1 1 1 1 2 1 1 1 1 1 1 0 1 1 1 1 2
3 3 4 4 4 5 3 6 4 6 5 5 5 5 5 4 3 3 3 2 2 2 2 2 2 2 2 2 2 2 1 1 1 1 2 2 1 1 1 2 1 1 1 1 1 1 1 1 2
3 5 6 4 4 4 3 6 4 4 4 4 4 4 3 4 3 3 2 2 2 2 2 1 1 1 2 2 2 2 1 1 1 1 2 1 1 1 1 1 1 1 1 1 1 2 1 2 2
Wind_Direction
7 66 75 57 54 52 51 6 25 44 55 47 63 79 92 82 85 116 287 118 117 99 63 76 77 78 80 79 77 74 72 72 71 71 71 71 69 70 70 75 77 76 76 78 79 78 75 70 73
48 75 55 58 76 69 10 346 51 77 138 132 73 71 73 66 71 106 94 146 107 93 73 82 84 83 83 81 78 74 73 73 73 72 73 73 72 71 69 69 72 71 72 74 76 74 75 71 73
84 56 73 67 83 127 136 26 110 87 105 90 75 59 74 79 106 144 165 137 93 74 70 87 91 86 84 82 80 77 76 75 74 72 73 73 73 71 69 68 66 65 66 67 68 69 70 71 73
76 46 55 69 79 168 168 170 140 118 75 52 90 68 55 27 132 138 119 112 97 71 72 94 95 88 83 81 80 78 76 76 75 73 72 73 73 72 70 68 67 65 65 66 64 63 64 68 72
60 71 62 57 41 357 20 142 128 107 88 61 88 91 46 5 82 107 112 110 109 86 70 92 97 93 87 82 80 78 74 74 74 73 73 73 72 73 70 67 65 64 63 63 62 61 63 66 71
58 67 81 81 33 7 8 70 103 92 97 94 97 99 64 39 104 116 113 110 100 88 70 81 93 91 88 85 83 79 76 74 74 72 72 72 70 68 67 65 62 60 59 60 61 61 63 65 70
94 87 110 125 101 33 94 83 110 115 107 124 126 107 101 124 140 116 102 93 82 72 63 55 63 74 81 81 78 76 74 73 71 68 68 68 65 62 61 59 58 57 56 58 60 60 62 63 66
112 98 89 107 128 180 134 92 89 105 115 111 111 131 166 185 134 103 85 76 74 65 54 50 51 57 59 66 73 71 69 68 68 66 64 63 60 57 55 54 54 54 55 58 60 59 60 62 63
85 80 125 175 163 177 100 94 61 65 92 75 73 138 154 132 118 103 84 65 63 63 47 49 53 53 57 63 68 66 65 61 62 61 63 59 54 52 51 52 52 53 54 55 55 55 57 58 58
78 114 192 194 168 149 112 108 125 90 76 62 57 69 103 117 123 124 122 121 114 94 57 55 60 52 55 62 60 58 55 54 56 57 57 58 56 54 53 52 52 52 52 52 50 49 48 49 51
96 142 172 93 138 128 108 80 81 115 113 183 160 142 127 125 130 140 143 149 169 168 145 118 80 59 62 58 62 56 54 53 54 56 60 60 54 49 47 45 43 45 47 46 43 44 42 46 51
98 60 117 112 101 99 106 102 78 93 202 180 151 141 134 141 153 163 162 163 150 128 126 104 82 77 66 64 62 62 55 50 48 51 60 64 55 46 43 45 40 43 46 45 43 48 45 46 49
88 62 50 81 83 98 90 78 97 35 21 86 107 118 133 146 152 148 140 136 125 130 145 130 99 109 91 74 63 67 58 53 55 59 59 68 67 54 45 43 46 44 46 48 45 48 43 41 45
117 87 56 58 75 77 99 71 81 355 72 94 110 129 140 143 138 108 97 117 140 148 167 154 135 127 118 109 92 78 72 66 60 57 58 69 76 68 56 47 43 42 44 48 53 52 46 39 45
92 74 38 23 60 95 98 45 355 222 110 109 123 132 126 123 120 137 154 150 156 154 145 145 151 113 135 135 115 88 87 84 65 59 59 69 76 76 70 60 45 36 45 53 58 52 51 42 39
69 65 47 322 36 112 120 206 278 147 129 134 146 137 129 127 143 156 140 126 127 117 118 142 150 132 131 138 124 96 93 85 71 74 70 73 78 83 81 68 50 45 54 58 52 42 39 33 29
46 102 207 290 332 120 134 210 264 139 145 156 166 166 164 166 334 275 125 131 128 129 134 120 96 128 134 121 114 105 88 75 74 77 73 77 78 84 88 74 58 63 60 47 49 40 42 35 23
200 177 199 225 253 122 143 224 272 153 158 176 190 188 184 203 234 221 166 133 115 108 107 105 88 84 98 95 89 87 78 59 57 62 65 82 87 91 91 77 62 69 65 44 42 46 37 37 18
153 157 195 232 204 143 176 236 266 199 167 187 203 208 212 228 247 200 141 117 102 93 92 102 94 89 107 103 118 129 134 74 43 34 58 84 95 100 102 80 71 67 79 74 63 63 42 27 16
141 151 198 270 144 156 186 265 266 213 202 202 201 204 213 229 288 121 128 123 136 135 130 119 119 116 129 133 134 136 134 123 116 26 38 57 89 98 102 103 110 99 92 74 64 71 51 21 23
183 181 194 196 82 82 118 308 289 276 239 220 210 206 203 201 199 193 180 183 161 159 170 163 161 140 112 108 94 70 56 39 31 22 16 9 68 90 92 97 108 121 129 139 114 104 98 47 2
236 217 180 163 140 256 166 274 287 258 280 258 235 217 218 211 197 189 188 189 192 199 181 159 157 137 118 111 117 118 114 135 243 250 266 349 29 52 78 93 99 124 141 173 195 98 133 134 263
211 141 138 144 145 72 21 189 288 292 261 261 244 224 222 211 199 198 197 196 195 180 164 152 141 130 122 127 134 135 134 155 11 35 35 357 349 4 32 88 93 146 174 204 185 159 159 168 186
132 81 63 56 81 281 234 182 283 252 235 253 242 235 231 212 201 199 193 176 169 147 142 135 132 135 132 134 143 149 150 142 116 47 272 288 294 313 342 37 53 217 206 224 240 218 200 207 212
92 94 42 1 0 251 211 190 249 255 237 225 223 225 226 201 188 184 177 169 168 160 161 157 149 160 156 149 161 178 181 181 194 218 228 227 243 256 270 305 292 286 267 241 223 219 245 221 221
165 143 157 200 225 272 233 226 250 265 276 254 202 180 156 157 172 183 190 183 181 180 174 169 173 185 176 173 189 187 185 196 217 230 234 230 231 237 269 282 270 272 264 259 206 232 260 260 246
146 176 164 140 158 240 267 276 297 309 333 36 101 111 150 177 177 181 181 179 178 179 184 183 181 185 183 188 188 175 183 204 225 240 241 247 243 251 268 260 263 277 265 236 196 241 261 269 258
135 143 107 128 163 247 280 266 255 267 264 269 200 189 199 180 174 185 183 183 182 179 182 178 179 189 191 181 182 180 203 220 222 213 256 271 282 294 254 251 262 272 311 300 197 268 272 269 272
97 112 121 135 158 168 245 266 232 229 226 220 225 216 200 191 193 201 200 181 157 132 118 139 168 170 179 185 174 157 187 198 162 214 249 250 274 287 222 225 239 266 276 270 240 264 277 270 280
165 165 148 163 215 182 191 263 284 245 238 224 232 227 208 194 192 194 187 149 127 124 121 121 132 156 195 187 162 169 184 144 146 245 263 257 243 282 264 235 238 255 270 257 250 270 286 266 278
Height
1496 1495 1495 1496 1501 1515 1520 1517 1513 1512 1513 1514 1513 1513 1515 1519 1522 1527 1524 1522 1522 1522 1522 1522 1521 1521 1521 1520 1520 1520 1520 1520 1519 1519 1518 1518 1518 1517 1517 1517 1517 1517 1518 1518 1518 1518 1517 1515 1513
1496 1496 1497 1498 1512 1528 1524 1516 1514 1513 1513 1514 1514 1516 1517 1519 1521 1522 1523 1523 1523 1523 1523 1523 1523 1523 1523 1522 1522 1522 1522 1522 1521 1521 1520 1520 1520 1519 1519 1518 1518 1519 1519 1519 1519 1519 1519 1517 1515
1497 1497 1499 1504 1517 1526 1522 1515 1514 1513 1514 1514 1516 1518 1519 1521 1522 1523 1523 1524 1524 1524 1524 1524 1524 1524 1524 1524 1524 1524 1524 1523 1523 1523 1522 1522 1522 1522 1521 1521 1520 1521 1520 1520 1521 1521 1521 1520 1519
1498 1499 1502 1511 1519 1518 1516 1514 1513 1514 1515 1516 1517 1520 1522 1524 1524 1524 1524 1525 1525 1526 1526 1526 1526 1526 1526 1526 1526 1526 1526 1525 1525 1525 1524 1524 1524 1524 1523 1523 1523 1523 1522 1522 1523 1523 1523 1523 1522
1499 1500 1510 1520 1519 1516 1514 1514 1514 1514 1516 1518 1518 1521 1524 1525 1525 1526 1526 1527 1527 1527 1527 1528 1528 1528 1528 1528 1528 1528 1527 1527 1527 1527 1526 1526 1526 1526 1526 1525 1525 1525 1525 1524 1524 1524 1524 1524 1524
1500 1504 1520 1526 1521 1517 1515 1515 1515 1516 1518 1519 1520 1522 1525 1526 1527 1527 1528 1528 1529 1529 1529 1529 1529 1530 1529 1529 1529 1529 1529 1529 1529 1529 1528 1528 1528 1528 1528 1527 1527 1527 1526 1526 1526 1526 1526 1526 1526
1503 1510 1520 1522 1522 1519 1516 1516 1516 1517 1519 1520 1521 1523 1526 1527 1528 1528 1529 1530 1530 1530 1531 1531 1531 1531 1531 1531 1531 1531 1531 1531 1531 1530 1530 1530 1530 1530 1529 1529 1529 1528 1528 1528 1528 1527 1527 1527 1527
1503 1510 1519 1522 1522 1520 1516 1517 1518 1518 1520 1522 1522 1523 1525 1527 1528 1529 1530 1531 1531 1532 1532 1532 1532 1533 1533 1533 1533 1533 1533 1532 1532 1532 1532 1532 1532 1531 1531 1531 1531 1530 1530 1530 1529 1529 1528 1528 1528
1504 1515 1523 1520 1520 1518 1516 1517 1519 1520 1520 1522 1523 1524 1525 1527 1529 1530 1531 1532 1532 1533 1533 1534 1534 1534 1534 1534 1534 1534 1534 1534 1534 1534 1534 1533 1533 1533 1532 1532 1532 1532 1531 1531 1531 1530 1530 1530 1530
1505 1518 1517 1514 1514 1516 1516 1517 1519 1521 1522 1523 1524 1525 1526 1527 1529 1530 1531 1532 1533 1534 1534 1535 1535 1535 1535 1535 1535 1535 1535 1535 1535 1535 1535 1535 1534 1534 1534 1534 1533 1533 1533 1532 1532 1532 1531 1531 1530
1507 1514 1513 1513 1513 1515 1517 1519 1520 1521 1525 1524 1524 1525 1527 1528 1530 1531 1532 1533 1534 1535 1536 1536 1536 1536 1536 1536 1536 1537 1536 1536 1536 1536 1536 1536 1536 1535 1535 1535 1534 1534 1534 1533 1533 1532 1532 1532 1531
1510 1512 1512 1513 1514 1516 1518 1520 1522 1523 1525 1525 1525 1526 1527 1528 1530 1531 1533 1534 1535 1535 1536 1537 1537 1537 1537 1537 1537 1538 1537 1537 1537 1537 1537 1537 1537 1536 1536 1536 1535 1535 1534 1534 1533 1533 1532 1532 1532
1511 1513 1514 1514 1515 1517 1519 1521 1523 1525 1525 1525 1525 1526 1527 1529 1530 1532 1534 1535 1535 1536 1537 1537 1538 1538 1538 1538 1538 1538 1538 1538 1538 1538 1538 1538 1537 1537 1537 1536 1536 1536 1535 1534 1534 1534 1533 1532 1532
1512 1514 1515 1516 1517 1519 1520 1523 1524 1526 1526 1525 1526 1527 1529 1530 1531 1532 1533 1534 1535 1536 1537 1538 1538 1538 1539 1539 1539 1539 1539 1539 1539 1539 1539 1539 1538 1538 1538 1537 1537 1536 1536 1535 1534 1534 1533 1533 1532
1513 1516 1518 1519 1519 1521 1522 1526 1527 1526 1526 1526 1527 1528 1529 1530 1531 1532 1533 1534 1535 1536 1537 1538 1538 1538 1539 1539 1540 1540 1540 1540 1540 1540 1539 1539 1539 1539 1538 1538 1537 1537 1536 1535 1535 1534 1533 1533 1532
1515 1521 1527 1522 1521 1522 1526 1533 1527 1526 1526 1526 1527 1528 1529 1530 1531 1532 1534 1534 1535 1536 1537 1537 1538 1538 1538 1539 1540 1540 1540 1540 1540 1540 1540 1540 1540 1539 1539 1538 1538 1537 1536 1535 1534 1534 1533 1532 1532
1523 1530 1529 1526 1522 1522 1526 1531 1527 1526 1526 1526 1527 1528 1529 1530 1531 1532 1533 1534 1535 1536 1536 1537 1537 1538 1538 1539 1539 1540 1540 1541 1541 1541 1541 1540 1540 1540 1539 1539 1538 1537 1536 1536 1535 1534 1533 1532 1531
1529 1529 1529 1528 1524 1524 1528 1529 1526 1526 1526 1526 1527 1528 1529 1529 1530 1531 1532 1533 1534 1535 1536 1537 1537 1537 1538 1538 1539 1540 1540 1540 1541 1541 1541 1541 1540 1540 1539 1539 1538 1537 1536 1535 1534 1534 1533 1532 1531
1521 1526 1529 1526 1523 1526 1529 1529 1526 1525 1526 1526 1526 1527 1528 1528 1530 1531 1532 1533 1534 1534 1535 1535 1536 1536 1537 1537 1538 1538 1539 1540 1540 1540 1540 1540 1540 1539 1539 1538 1538 1537 1536 1535 1534 1533 1532 1532 1531
1520 1526 1528 1525 1522 1525 1529 1529 1525 1524 1524 1524 1524 1525 1526 1527 1528 1529 1530 1531 1532 1533 1533 1534 1535 1535 1536 1536 1537 1538 1539 1539 1540 1540 1540 1540 1539 1539 1539 1538 1537 1537 1536 1535 1534 1533 1532 1531 1531
1521 1524 1525 1526 1525 1525 1528 1530 1526 1523 1522 1522 1523 1523 1524 1525 1526 1527 1528 1530 1531 1531 1532 1533 1534 1535 1535 1536 1536 1537 1538 1539 1539 1539 1539 1539 1539 1538 1538 1537 1537 1536 1535 1534 1533 1533 1532 1531 1531
1523 1517 1519 1523 1529 1535 1531 1542 1529 1524 1523 1521 1521 1521 1521 1523 1524 1525 1527 1528 1529 1530 1531 1532 1533 1534 1535 1535 1535 1536 1536 1537 1537 1538 1538 1538 1538 1537 1537 1536 1536 1535 1534 1534 1533 1532 1531 1531 1530
1516 1514 1518 1522 1528 1536 1535 1540 1534 1524 1524 1520 1518 1518 1519 1520 1522 1523 1524 1526 1527 1529 1530 1531 1532 1533 1534 1534 1535 1535 1536 1536 1537 1537 1537 1537 1537 1536 1536 1535 1535 1534 1533 1532 1532 1531 1530 1530 1529
1513 1518 1523 1529 1534 1543 1537 1541 1537 1527 1520 1517 1515 1515 1516 1517 1519 1521 1523 1524 1526 1527 1529 1530 1530 1531 1532 1533 1534 1534 1534 1535 1535 1535 1535 1535 1535 1535 1534 1534 1533 1533 1532 1531 1530 1530 1529 1528 1528
1515 1527 1541 1541 1547 1545 1534 1537 1533 1518 1514 1513 1512 1513 1513 1515 1517 1518 1520 1522 1523 1525 1527 1528 1529 1530 1531 1532 1532 1532 1533 1533 1533 1533 1533 1533 1533 1532 1532 1532 1531 1531 1530 1529 1529 1528 1527 1526 1526
1517 1524 1540 1546 1548 1544 1536 1537 1524 1513 1511 1510 1510 1511 1512 1513 1515 1516 1518 1520 1522 1523 1524 1526 1527 1528 1529 1530 1530 1531 1531 1531 1531 1532 1532 1531 1531 1530 1530 1530 1530 1529 1528 1528 1527 1526 1525 1524 1524
1517 1523 1524 1536 1540 1544 1539 1531 1519 1511 1510 1509 1509 1510 1511 1512 1513 1515 1516 1518 1520 1521 1523 1524 1525 1526 1527 1528 1528 1529 1529 1529 1529 1529 1530 1529 1529 1528 1528 1528 1527 1527 1526 1525 1525 1524 1523 1522 1521
1511 1518 1529 1536 1544 1546 1538 1533 1526 1514 1511 1510 1509 1509 1510 1511 1512 1514 1515 1516 1517 1519 1521 1522 1523 1524 1525 1526 1526 1526 1527 1527 1527 1527 1527 1526 1526 1526 1526 1525 1525 1524 1523 1523 1522 1521 1520 1519 1519
1517 1520 1525 1534 1536 1543 1544 1534 1513 1511 1508 1508 1507 1507 1508 1509 1511 1512 1513 1514 1516 1517 1519 1520 1521 1522 1523 1523 1524 1524 1524 1525 1524 1524 1524 1524 1523 1523 1523 1522 1522 1521 1521 1520 1519 1518 1518 1517 1516
1511 1516 1522 1530 1534 1537 1539 1532 1507 1506 1505 1505 1505 1506 1507 1508 1509 1511 1512 1513 1514 1515 1516 1518 1519 1520 1521 1521 1522 1522 1522 1522 1521 1521 1521 1521 1521 1520 1520 1519 1519 1518 1518 1517 1516 1516 1515 1514 1513